User: anonymous   Login
Location: Unspecified
(0.0000°N, 0.0000°E)
Time: 04:58:33
(UTC+00:00)
Language:

Injun 5 (Explorer 40) - Orbit

View from above orbital plane
View from above orbital plane
View from above satellite
View from above satellite

Ground track
Ground track

The orbit data is extracted from the following two-line orbital elements,

1  3338U 68066B   18322.21184791  .00000035  00000-0  30856-4 0  9996
2  3338  80.6653  41.9655 1133226 205.1122 149.0486 12.22867566239942
Epoch (UTC): 18 November 2018 05:05:03
Eccentricity: 0.1133226
inclination: 80.6653°
perigee height: 678 km
apogee height: 2482 km
right ascension of ascending node: 41.9655°
argument of perigee: 205.1122°
revolutions per day: 12.22867566
mean anomaly at epoch: 149.0486°
orbit number at epoch: 23994

The dashed part of the orbit path shows where the satellite is in the earth's shadow,  

DLR